Total_Precipitation_Accumulation
1.19 1.23 1.29 1.27 1.31 1.44 1.56 1.60 1.58 1.52 1.52 1.51 1.26 1.11 1.02 1.03 1.12 1.18 1.30 1.09 0.74 0.58 0.52 0.52 0.57 0.65 0.73 0.87 1.01 1.17 1.31 1.45 1.59 1.76 1.99 2.18 2.34 2.49
1.32 1.41 1.40 1.34 1.38 1.45 1.50 1.62 1.73 1.74 1.63 1.48 1.31 1.19 1.11 0.97 0.99 0.97 1.04 0.91 0.67 0.56 0.50 0.47 0.46 0.48 0.54 0.62 0.70 0.83 0.96 1.14 1.32 1.45 1.58 1.71 1.85 1.98
1.22 1.23 1.23 1.26 1.31 1.26 1.34 1.47 1.63 1.78 1.64 1.53 1.45 1.41 1.34 1.25 1.11 0.91 0.79 0.70 0.62 0.59 0.51 0.46 0.46 0.46 0.46 0.48 0.53 0.61 0.72 0.88 1.05 1.17 1.29 1.47 1.60 1.71
1.24 1.16 1.08 1.15 1.24 1.25 1.35 1.37 1.43 1.65 1.65 1.62 1.60 1.62 1.53 1.35 1.25 1.11 0.91 0.79 0.75 0.69 0.58 0.50 0.44 0.44 0.43 0.44 0.49 0.54 0.63 0.74 0.88 0.99 1.04 1.08 1.23 1.43
1.19 1.12 1.04 1.05 1.09 1.19 1.30 1.34 1.33 1.40 1.55 1.58 1.60 1.68 1.65 1.45 1.28 1.15 1.05 1.07 0.98 0.81 0.63 0.53 0.47 0.43 0.42 0.41 0.49 0.58 0.71 0.73 0.74 0.83 0.93 1.00 1.05 1.11
0.94 0.89 0.93 1.03 1.09 1.09 1.08 1.11 1.16 1.26 1.35 1.42 1.50 1.63 1.68 1.60 1.39 1.26 1.25 1.20 1.12 0.86 0.73 0.60 0.51 0.44 0.40 0.36 0.39 0.53 0.68 0.75 0.81 0.83 0.87 0.93 1.00 1.05
0.76 0.62 0.62 0.78 0.92 0.95 0.88 0.93 0.98 1.06 1.12 1.22 1.33 1.47 1.57 1.66 1.48 1.30 1.25 1.31 1.27 1.14 0.99 0.80 0.66 0.58 0.55 0.51 0.44 0.44 0.50 0.61 0.72 0.87 1.02 1.12 1.17 1.18
0.63 0.58 0.56 0.56 0.58 0.60 0.64 0.69 0.77 0.86 0.99 1.15 1.27 1.34 1.38 1.48 1.57 1.53 1.47 1.42 1.42 1.39 1.39 1.31 1.04 0.94 0.90 0.84 0.67 0.46 0.37 0.44 0.58 0.71 0.95 1.22 1.46 1.53
0.55 0.59 0.48 0.41 0.44 0.44 0.44 0.42 0.44 0.49 0.63 0.86 1.09 1.18 1.29 1.33 1.55 1.60 1.62 1.72 1.72 1.71 1.68 1.73 1.46 1.19 1.01 0.93 0.83 0.60 0.45 0.39 0.47 0.60 0.71 0.92 1.21 1.53
0.50 0.54 0.55 0.54 0.53 0.54 0.52 0.48 0.43 0.40 0.42 0.49 0.71 0.96 1.18 1.41 1.50 1.57 1.65 1.71 1.73 1.62 1.56 1.67 1.60 1.47 1.24 0.94 0.83 0.73 0.61 0.52 0.50 0.57 0.59 0.63 0.77 0.99
0.57 0.57 0.58 0.59 0.56 0.44 0.45 0.48 0.48 0.49 0.41 0.41 0.50 0.72 0.92 1.03 1.26 1.46 1.59 1.51 1.45 1.27 1.13 1.23 1.34 1.40 1.44 1.27 0.97 0.87 0.75 0.63 0.60 0.61 0.59 0.58 0.63 0.70
0.78 0.72 0.59 0.52 0.47 0.37 0.41 0.53 0.51 0.51 0.56 0.51 0.44 0.50 0.64 0.78 0.85 0.97 1.19 1.31 1.20 1.14 0.97 0.88 0.89 1.01 1.14 1.09 0.94 0.89 0.89 0.81 0.68 0.66 0.66 0.66 0.71 0.67
0.93 0.88 0.81 0.64 0.47 0.41 0.41 0.48 0.51 0.54 0.65 0.69 0.66 0.65 0.75 0.87 0.84 0.80 0.89 1.03 1.05 0.91 0.84 0.91 0.87 0.80 0.78 0.81 0.82 0.75 0.79 0.90 0.88 0.78 0.73 0.74 0.79 0.83
1.15 1.11 1.03 0.81 0.60 0.52 0.48 0.46 0.42 0.42 0.52 0.63 0.66 0.64 0.68 0.78 0.86 0.85 0.88 0.92 0.95 0.87 0.84 0.92 0.99 0.94 0.79 0.67 0.65 0.61 0.60 0.69 0.84 1.02 1.10 1.12 1.01 0.97
1.27 1.28 1.06 0.85 0.70 0.56 0.52 0.51 0.45 0.42 0.53 0.58 0.58 0.59 0.60 0.70 0.90 1.02 1.05 1.05 1.01 0.87 0.75 0.74 0.84 0.98 0.94 0.74 0.61 0.56 0.57 0.64 0.76 0.94 1.06 1.17 1.24 1.24
1.12 1.18 1.05 0.89 0.78 0.67 0.62 0.59 0.55 0.56 0.63 0.64 0.65 0.69 0.72 0.79 0.88 0.97 1.06 1.10 1.06 0.87 0.76 0.74 0.78 0.92 0.98 0.85 0.72 0.65 0.64 0.72 0.79 0.96 1.15 1.22 1.25 1.32
1.15 1.20 1.22 1.09 0.97 0.87 0.83 0.85 0.84 0.78 0.72 0.74 0.79 0.81 0.81 0.82 0.88 0.94 1.01 1.04 0.99 0.82 0.71 0.77 0.86 0.97 0.97 0.93 0.84 0.69 0.66 0.65 0.67 0.81 1.01 1.12 1.21 1.29
1.08 1.12 1.21 1.20 1.12 1.04 0.99 1.01 1.01 0.95 0.89 0.90 0.89 0.88 0.86 0.84 0.87 0.91 0.95 0.96 0.92 0.84 0.75 0.71 0.83 0.96 1.00 0.89 0.72 0.64 0.61 0.57 0.62 0.76 0.85 0.86 0.84 0.93
0.93 1.00 1.10 1.15 1.12 1.10 1.05 1.03 1.00 1.03 1.04 1.00 0.96 0.95 0.93 0.87 0.85 0.88 0.90 0.94 0.93 0.91 0.88 0.87 0.84 0.80 0.78 0.68 0.60 0.54 0.60 0.61 0.68 0.74 0.80 0.75 0.68 0.73
0.85 0.92 0.98 1.03 1.05 1.07 1.07 1.07 1.04 1.05 1.03 1.01 0.96 0.94 0.93 0.88 0.88 0.89 0.87 0.88 0.94 0.96 0.97 0.90 0.83 0.74 0.65 0.67 0.70 0.65 0.56 0.68 0.73 0.69 0.68 0.70 0.68 0.63
0.83 0.87 0.89 0.90 0.94 0.98 0.99 1.03 1.02 0.98 0.96 0.99 0.95 0.90 0.91 0.90 0.89 0.89 0.90 0.91 0.91 0.94 0.91 0.79 0.74 0.86 0.97 0.97 0.85 0.74 0.70 0.67 0.75 0.75 0.74 0.74 0.71 0.68
0.81 0.84 0.80 0.79 0.84 0.90 0.94 0.99 0.98 0.99 1.00 0.97 0.94 0.91 0.89 0.88 0.86 0.87 0.90 0.91 0.91 0.90 0.89 0.93 0.99 1.02 1.01 0.89 0.76 0.78 0.85 0.80 0.78 0.80 0.75 0.75 0.70 0.61
0.77 0.73 0.69 0.71 0.76 0.81 0.84 0.87 0.91 0.96 0.95 0.93 0.96 0.93 0.88 0.88 0.87 0.88 0.87 0.87 0.89 0.94 1.01 1.07 1.05 0.97 0.92 0.91 0.86 0.81 0.82 0.87 0.90 0.87 0.76 0.69 0.63 0.55